Regional Weather Roundup
Issued by NWS

Home | Current Version | Previous Version | Graphics & Text | Print | Product List | Glossary On
Versions: 1 2 3 4 5 6 7 8 9 10 11 12 13 14 15 16 17 18 19 20 21 22 23 24 25 26 27 28 29 30 31 32 33 34 35 36 37 38 39 40 41 42 43 44 45 46 47 48 49 50
986
ASUS43 KMKX 061210
RWRWI

WISCONSIN REGIONAL WEATHER ROUNDUP
NATIONAL WEATHER SERVICE MILWAUKEE/SULLIVAN WI
600 AM CST SAT FEB 06 2016

NOTE: "FAIR" INDICATES FEW OR NO CLOUDS BELOW 12,000 FEET WITH NO
SIGNIFICANT WEATHER AND/OR OBSTRUCTIONS TO VISIBILITY.

WIZ001-002-006>008-014>016-023>028-061300-
NORTHWEST WISCONSIN

CITY           SKY/WX    TMP DP  RH WIND       PRES   REMARKS
SUPERIOR ARPT  PTCLDY    21  17  84 SW7       30.08S WCI  12
6HR MIN TEMP:  21; 6HR MAX TEMP:  25;

ASHLAND        CLOUDY    23  18  81 SW8       30.08S WCI  14
6HR MIN TEMP:  22; 6HR MAX TEMP:  24;

HAYWARD        CLOUDY    23  18  81 VRB6      30.08S WCI  16
6HR MIN TEMP:  22; 6HR MAX TEMP:  23;

SIREN          CLOUDY    24  20  85 SW6       30.10S WCI  17
6HR MIN TEMP:  24; 6HR MAX TEMP:  25;

CUMBERLAND     CLOUDY    23  21  93 W8        30.10S WCI  14
RICE LAKE      CLOUDY    25  21  85 SW8       30.13R WCI  16
6HR MIN TEMP:  23; 6HR MAX TEMP:  25;

CHETEK         CLOUDY    24  22  91 CALM      30.12S
6HR MIN TEMP:  23; 6HR MAX TEMP:  24;

LADYSMITH      CLOUDY    23  22  95 SW6       30.11F FOG     WCI  16
6HR MIN TEMP:  22; 6HR MAX TEMP:  23;

EAU CLAIRE     CLOUDY    25  21  85 SW7       30.13S WCI  17
6HR MIN TEMP:  23; 6HR MAX TEMP:  25;

MENOMONIE      CLOUDY    27  22  84 SW8       30.14S WCI  18
6HR MIN TEMP:  24; 6HR MAX TEMP:  27;

NEW RICHMOND   CLOUDY    24  20  85 SW10      30.14R WCI  14
6HR MIN TEMP:  24; 6HR MAX TEMP:  26;

OSCEOLA        CLOUDY    25  22  88 SW8       30.16S WCI  16
6HR MIN TEMP:  25; 6HR MAX TEMP:  26;

$$

WIZ003>005-009-010-017-018-061300-
NORTH CENTRAL WISCONSIN

CITY           SKY/WX    TMP DP  RH WIND       PRES   REMARKS
MANITOWISH WTR CLOUDY    20  19  98 W6        30.04S WCI  12
6HR MIN TEMP:  19; 6HR MAX TEMP:  20;

ARBOR VITAE    CLOUDY    22  20  92 W6        30.05R FOG     WCI  14
6HR MIN TEMP:  22; 6HR MAX TEMP:  22;

WOODRUFF       CLOUDY    22  20  92 W6        30.05R FOG     WCI  14
6HR MIN TEMP:  22; 6HR MAX TEMP:  22;

RHINELANDER    CLOUDY    20  18  92 W6        30.06S FOG     WCI  12
6HR MIN TEMP:  20; 6HR MAX TEMP:  20; 6HR PCP: TRACE;

EAGLE RIVER    CLOUDY    20  19  96 W8        30.04S FOG     WCI  11
LAND O LAKES   CLOUDY    21  19  92 W5        30.03S WCI  15
6HR MIN TEMP:  21; 6HR MAX TEMP:  21;

PHILLIPS       CLOUDY    21  20  96 SW5       30.06F FOG     WCI  14
6HR MIN TEMP:  19; 6HR MAX TEMP:  21;

TOMAHAWK       CLOUDY    21  19  93 CALM      30.08S FOG
6HR MIN TEMP:  20; 6HR MAX TEMP:  21;

MEDFORD        CLOUDY    22  22  99 W8        30.08S FOG     WCI  12
6HR MIN TEMP:  20; 6HR MAX TEMP:  22;

MERRILL        CLOUDY    22  22  98 SW6       30.10F FOG     WCI  15
6HR MIN TEMP:  21; 6HR MAX TEMP:  22;

$$

WIZ029-030-035-036-043>047-061300-
CENTRAL WISCONSIN

CITY           SKY/WX    TMP DP  RH WIND       PRES   REMARKS
WAUSAU         CLOUDY    24  21  88 W10       30.10S WCI  14
6HR MIN TEMP:  23; 6HR MAX TEMP:  24; 6HR PCP: TRACE;

MOSINEE        CLOUDY    21  21 100 SW9       30.13S FOG     WCI  11
MARSHFIELD     CLOUDY    24  20  84 SW9       30.11S FOG     WCI  14
6HR MIN TEMP:  23; 6HR MAX TEMP:  24; 6HR PCP: TRACE;

STEVENS POINT  CLOUDY    22  21  96 W9        30.14S FOG     WCI  12
6HR MIN TEMP:  21; 6HR MAX TEMP:  22;

WAUPACA        CLOUDY    28  23  81 SW10      30.16S WCI  18
6HR MIN TEMP:  26; 6HR MAX TEMP:  28;

WAUTOMA        CLOUDY    26  22  85 SW8       30.18S WCI  18
6HR MIN TEMP:  24; 6HR MAX TEMP:  26; 6HR PCP: TRACE;

WISC RAPIDS    CLOUDY    25  21  85 W7        30.16F WCI  17
6HR MIN TEMP:  22; 6HR MAX TEMP:  25; 6HR PCP: TRACE;

CAMP DOUGLAS   CLOUDY    26  26 100 W8        30.16F WCI  18
6HR MIN TEMP:  25; 6HR MAX TEMP:  26; 6HR PCP: TRACE;

$$

WIZ011>013-019>022-031-037>040-048>050-061300-
NORTHEAST WISCONSIN

CITY           SKY/WX    TMP DP  RH WIND       PRES   REMARKS
ANTIGO         CLOUDY    20  20  98 W9        30.08F FOG     WCI  10
6HR MIN TEMP:  20; 6HR MAX TEMP:  21;

SHAWANO        CLOUDY    27  22  82 W8        30.15R WCI  18
6HR MIN TEMP:  25; 6HR MAX TEMP:  27;

OCONTO         CLOUDY    25  21  86 W7        30.14S WCI  17
6HR MIN TEMP:  22; 6HR MAX TEMP:  25;

STURGEON BAY   CLOUDY    25  18  74 W15       30.15S WCI  12
6HR MIN TEMP:  25; 6HR MAX TEMP:  27;

GREEN BAY      CLOUDY    26  20  77 SW10      30.16R WCI  16
6HR MIN TEMP:  23; 6HR MAX TEMP:  26; 6HR PCP: TRACE;

MANITOWOC      FLURRIES  28  20  71 W15       30.17S WCI  16
6HR MIN TEMP:  26; 6HR MAX TEMP:  28; 6HR PCP: TRACE;

APPLETON       CLOUDY    25  19  80 SW10      30.14S WCI  15
CLINTONVILLE   CLOUDY    27  21  80 W9        30.15S WCI  17
OSHKOSH        CLOUDY    27  18  69 SW6       30.17S WCI  20
6HR MIN TEMP:  24; 6HR MAX TEMP:  27;

$$

WIZ032>034-041-042-053>061-061300-
SOUTHWEST WISCONSIN

CITY           SKY/WX    TMP DP  RH WIND       PRES   REMARKS
LA CROSSE      CLOUDY    28  23  81 W7        30.19F WCI  21
6HR MIN TEMP:  25; 6HR MAX TEMP:  28;

SPARTA         CLOUDY    27  25  93 W5        30.19S WCI  21
6HR MIN TEMP:  25; 6HR MAX TEMP:  27;

VIROQUA        CLOUDY    26  26 100 SW9       30.16F WCI  16
6HR MIN TEMP:  24; 6HR MAX TEMP:  26;

BOSCOBEL       CLOUDY    29  24  82 SW6       30.22S WCI  23
6HR MIN TEMP:  26; 6HR MAX TEMP:  29;

PRAIRIE DU CHI CLOUDY    29  24  81 SW5       30.23S WCI  24
6HR MIN TEMP:  28; 6HR MAX TEMP:  29;

PLATTEVILLE    CLOUDY    28  24  86 SW8       30.21S WCI  19
6HR MIN TEMP:  25; 6HR MAX TEMP:  28;

$$

WIZ056-057-062-063-064-067-068-061300-
SOUTH CENTRAL WISCONSIN

CITY           SKY/WX    TMP DP  RH WIND       PRES   REMARKS
REEDSBURG      CLOUDY    27  21  80 SW6       30.19R WCI  20
6HR MIN TEMP:  25; 6HR MAX TEMP:  27;

BARABOO/DELLS  CLOUDY    27  20  77 SW10      30.18S WCI  17
6HR MIN TEMP:  25; 6HR MAX TEMP:  27;

LONE ROCK      CLOUDY    28  21  75 W5        30.21F WCI  23
6HR MIN TEMP:  27; 6HR MAX TEMP:  28;

MINERAL POINT  CLOUDY    28  25  86 SW8       30.19S WCI  20
MADISON        MOCLDY    27  20  75 SW6       30.20S WCI  20
6HR MIN TEMP:  27; 6HR MAX TEMP:  27;

MIDDLETON      CLOUDY    28  22  78 SW6       30.20S WCI  22
6HR MIN TEMP:  28; 6HR MAX TEMP:  28;

WATERTOWN      CLOUDY    27  23  83 SW7       30.20R WCI  20
6HR MIN TEMP:  26; 6HR MAX TEMP:  28;

MONROE         MOCLDY    27  23  86 SW10      30.21R WCI  17
JANESVILLE     PTCLDY    27  25  93 SW8       30.22F WCI  18
$$

WIZ051-052-058>065-066-070>072-061300-
SOUTHEAST WISCONSIN

CITY           SKY/WX    TMP DP  RH WIND       PRES   REMARKS
MILWAUKEE      PTCLDY    27  20  75 SW9       30.21F WCI  18
6HR MIN TEMP:  26; 6HR MAX TEMP:  29;

WAUKESHA       MOCLDY    27  18  69 SW3       30.21F
MILWAUKEE/TIMM PTCLDY    27  21  80 SW9       30.21F WCI  17
RACINE         CLEAR     27  20  75 SW9       30.24F WCI  18
6HR MIN TEMP:  27; 6HR MAX TEMP:  28;

BURLINGTON     PTCLDY    24  20  86 SW7       30.22F WCI  16
6HR MIN TEMP:  24; 6HR MAX TEMP:  26;

KENOSHA        PTCLDY    25  21  85 SW8       30.23F WCI  16
6HR MIN TEMP:  25; 6HR MAX TEMP:  28;

FOND DU LAC    CLOUDY    27  19  72 SW8       30.18S WCI  19
6HR MIN TEMP:  25; 6HR MAX TEMP:  27;

SHEBOYGAN      CLOUDY    28  18  66 SW15      30.17F WCI  16
6HR MIN TEMP:  26; 6HR MAX TEMP:  28;

WEST BEND      CLOUDY    28  21  74 SW9       30.18S WCI  20
JUNEAU         CLOUDY    26  22  82 S10       30.20S WCI  16
6HR MIN TEMP:  24; 6HR MAX TEMP:  26;

$$

LSZ147-162-061300-
LAKE SUPERIOR

STATION/POSITION TIME  TEMP    WIND        PRES    WAVE
                       AIR SEA DIR/SP/G            HT/PER
                 (UTC) (F)     (DEG/KT/KT) (MB)    (FT/S)
DEVILS ISLAND    1200   28     250/ 19/ 22 1018.3F
SAXON HARBOR     1140   25                 1018.3F
$$

LMZ867-665-643>646-061300-
LAKE MICHIGAN

STATION/POSITION TIME  TEMP    WIND        PRES    WAVE
                       AIR SEA DIR/SP/G            HT/PER
                 (UTC) (F)     (DEG/KT/KT) (MB)    (FT/S)
CHAMBERS ISLAND  1100 C1F1C2F2C3F3C4F4C5F5C6F6C7F7C8M1C9M2Ca!



USA.gov is the U.S. government's official web portal to all federal, state and local government web resources and services.